Idaho Cnty AP, Grangeville, I, ID

12:38 AM PDT on March 30, 2017 (GMT -0700)
Idaho Cnty AP, Grangeville, I

Weather History for KGIC - August, 2013

Change the Weather History Date:

Wednesday, August 7, 2013

  Actual Average (KP69) Record (KP69)
Temperature  
Mean Temperature 70 °F -  
Max Temperature 88 °F 89 °F 99 °F (2008)
Min Temperature 53 °F 54 °F 46 °F (1996)
Cooling Degree Days 6    
Growing Degree Days 20 (Base 50)    
Moisture  
Dew Point 38 °F    
Average Humidity 35    
Maximum Humidity 71    
Minimum Humidity 13    
Precipitation  
Precipitation 0.00 in - - ()
Sea Level Pressure  
Sea Level Pressure 30.02 in    
Wind  
Wind Speed 2 mph (East)    
Max Wind Speed 12 mph    
Max Gust Speed -    
Visibility 10 miles    
Events      
Averages and records for this station are not official NWS values.
T = Trace of Precipitation, MM = Missing Value Source: NWS Daily Summary

Daily Weather History Graph

Daily Weather History Graph

Search for Another Location

Airport or City:

Trip Planner

Search our weather history database for the weather conditions in past years. The results will help you decide how hot, cold, wet, or windy it might be!

Date:

Astronomy

Aug. 07, 2013 Rise Set
Actual Time 5:34 AM PDT 8:04 PM PDT
Civil Twilight 5:01 AM PDT 8:38 PM PDT
Nautical Twilight 4:18 AM PDT 9:20 PM PDT
Astronomical Twilight 3:30 AM PDT 10:08 PM PDT
Moon 6:33 AM PDT (8/7) 8:06 PM PDT (8/7)
Length of Visible Light 15h 37m
Length of Day
14h 30m
New Moon, 1% of the Moon is Illuminated
Aug 7
New Moon
Aug 14
First Quarter
Aug 20
Full
Aug 28
Last Quarter
Sep 5
New

Hourly Weather History & Observations

Time (PDT) Temp. Dew Point Humidity Pressure Visibility Wind Dir Wind Speed Gust Speed Precip Events Conditions
12:15 AM 63.9 °F 43.5 °F 48% 30.02 in 10.0 mi Calm Calm - N/A   Clear
12:35 AM 63.7 °F 43.5 °F 48% 30.02 in 10.0 mi SSW 3.5 mph - N/A   Clear
12:55 AM 62.4 °F 43.9 °F 51% 30.02 in 10.0 mi SSW 4.6 mph - N/A   Clear
1:15 AM 60.8 °F 44.4 °F 55% 30.02 in 10.0 mi Calm Calm - N/A   Clear
1:35 AM 60.8 °F 44.6 °F 55% 30.02 in 10.0 mi Calm Calm - N/A   Clear
1:55 AM 60.3 °F 44.2 °F 55% 30.02 in 10.0 mi Calm Calm - N/A   Clear
2:15 AM 60.6 °F 43.9 °F 54% 30.02 in 10.0 mi Calm Calm - N/A   Clear
2:35 AM 60.6 °F 43.5 °F 53% 30.01 in 10.0 mi Calm Calm - N/A   Clear
2:55 AM 58.8 °F 44.1 °F 58% 30.02 in 7.0 mi Calm Calm - N/A   Clear
3:15 AM 56.8 °F 44.2 °F 63% 30.02 in 10.0 mi Calm Calm - N/A   Clear
3:35 AM 55.8 °F 44.1 °F 65% 30.02 in 10.0 mi Calm Calm - N/A   Clear
3:55 AM 53.4 °F 44.2 °F 71% 30.03 in 10.0 mi Calm Calm - N/A   Clear
4:15 AM 53.4 °F 43.9 °F 70% 30.03 in 10.0 mi SE 4.6 mph - N/A   Clear
4:35 AM 55.9 °F 44.2 °F 65% 30.03 in 10.0 mi South 8.1 mph - N/A   Clear
4:55 AM 56.8 °F 43.9 °F 62% 30.03 in 10.0 mi SE 4.6 mph - N/A   Clear
5:15 AM 56.5 °F 43.7 °F 62% 30.03 in 10.0 mi Calm Calm - N/A   Clear
5:35 AM 53.6 °F 44.2 °F 71% 30.04 in 10.0 mi Calm Calm - N/A   Clear
5:55 AM 53.8 °F 43.7 °F 69% 30.04 in 10.0 mi Calm Calm - N/A   Clear
6:15 AM 55.2 °F 43.9 °F 66% 30.04 in 10.0 mi Calm Calm - N/A   Clear
6:35 AM 54.9 °F 44.8 °F 69% 30.05 in 10.0 mi Calm Calm - N/A   Clear
6:55 AM 57.4 °F 46.9 °F 68% 30.05 in 10.0 mi Calm Calm - N/A   Clear
7:15 AM 62.1 °F 45.7 °F 55% 30.05 in 10.0 mi Calm Calm - N/A   Clear
7:35 AM 64.6 °F 43.0 °F 45% 30.05 in 10.0 mi Calm Calm - N/A   Clear
7:55 AM 66.2 °F 43.0 °F 43% 30.06 in 10.0 mi Calm Calm - N/A   Clear
8:15 AM 68.4 °F 43.0 °F 40% 30.06 in 10.0 mi Calm Calm - N/A   Clear
8:35 AM 70.9 °F 43.2 °F 37% 30.07 in 10.0 mi NE 3.5 mph - N/A   Clear
8:55 AM 71.8 °F 42.6 °F 35% 30.07 in 10.0 mi Calm Calm - N/A   Clear
9:15 AM 73.8 °F 43.0 °F 33% 30.07 in 10.0 mi ENE 4.6 mph - N/A   Clear
9:35 AM 75.6 °F 42.8 °F 31% 30.06 in 10.0 mi East 4.6 mph - N/A   Clear
9:55 AM 77.4 °F 43.2 °F 30% 30.06 in 10.0 mi NNE 3.5 mph - N/A   Clear
10:15 AM 78.8 °F 41.2 °F 26% 30.06 in 10.0 mi ENE 5.8 mph - N/A   Clear
10:35 AM 79.7 °F 38.7 °F 23% 30.06 in 10.0 mi Calm Calm - N/A   Clear
10:55 AM 80.6 °F 37.6 °F 21% 30.06 in 10.0 mi Calm Calm - N/A   Clear
11:15 AM 81.3 °F 36.1 °F 20% 30.05 in 10.0 mi ESE 4.6 mph - N/A   Clear
11:35 AM 82.2 °F 35.6 °F 19% 30.05 in 10.0 mi East 5.8 mph - N/A   Clear
11:55 AM 82.8 °F 33.6 °F 17% 30.05 in 10.0 mi NE 4.6 mph - N/A   Clear
12:15 PM 83.3 °F 32.9 °F 16% 30.05 in 10.0 mi Calm Calm - N/A   Clear
12:35 PM 83.7 °F 32.4 °F 16% 30.04 in 10.0 mi Calm Calm - N/A   Clear
12:55 PM 85.3 °F 31.5 °F 14% 30.04 in 10.0 mi NNE 5.8 mph - N/A   Clear
1:15 PM 86.2 °F 30.0 °F 13% 30.04 in 10.0 mi NE 10.4 mph - N/A   Clear
1:35 PM 86.4 °F 31.3 °F 14% 30.03 in 10.0 mi Calm Calm - N/A   Clear
1:55 PM 86.4 °F 30.9 °F 14% 30.03 in 10.0 mi Calm Calm - N/A   Clear
2:15 PM 86.7 °F 32.0 °F 14% 30.02 in 10.0 mi ENE 8.1 mph - N/A   Clear
2:35 PM 87.6 °F 32.2 °F 14% 30.01 in 10.0 mi ENE 8.1 mph - N/A   Clear
2:55 PM 88.0 °F 32.5 °F 14% 30.01 in 10.0 mi East 4.6 mph - N/A   Clear
3:15 PM 88.0 °F 32.4 °F 14% 30.01 in 10.0 mi East 5.8 mph - N/A   Clear
3:35 PM 88.0 °F 32.7 °F 14% 30.00 in 10.0 mi ENE 4.6 mph - N/A   Clear
3:55 PM 87.6 °F 32.4 °F 14% 29.99 in 10.0 mi East 9.2 mph - N/A   Clear
4:15 PM 87.8 °F 32.9 °F 14% 29.99 in 10.0 mi East 8.1 mph - N/A   Clear
4:35 PM 87.8 °F 32.9 °F 14% 29.99 in 10.0 mi NE 11.5 mph - N/A   Clear
4:55 PM 87.3 °F 32.9 °F 14% 29.98 in 10.0 mi NNE 10.4 mph - N/A   Clear
5:15 PM 87.3 °F 32.4 °F 14% 29.98 in 10.0 mi ENE 8.1 mph - N/A   Clear
5:35 PM 87.1 °F 32.0 °F 14% 29.98 in 10.0 mi East 5.8 mph - N/A   Clear
5:55 PM 86.5 °F 31.3 °F 14% 29.98 in 10.0 mi ENE 6.9 mph - N/A   Clear
6:15 PM 86.0 °F 30.2 °F 13% 29.98 in 10.0 mi ENE 9.2 mph - N/A   Clear
6:35 PM 85.3 °F 29.7 °F 13% 29.98 in 10.0 mi ENE 5.8 mph - N/A   Clear
6:55 PM 84.2 °F 28.6 °F 13% 29.98 in 10.0 mi NE 6.9 mph - N/A   Clear
7:15 PM 82.2 °F 29.7 °F 15% 29.98 in 7.0 mi NE 5.8 mph - N/A   Clear
7:35 PM 79.3 °F 31.1 °F 17% 29.98 in 10.0 mi NE 3.5 mph - N/A   Clear
7:55 PM 77.2 °F 32.2 °F 19% 29.98 in 10.0 mi NNE 3.5 mph - N/A   Clear
8:15 PM 75.0 °F 31.8 °F 21% 29.98 in 10.0 mi Calm Calm - N/A   Clear
8:35 PM 73.8 °F 31.3 °F 21% 29.99 in 10.0 mi Calm Calm - N/A   Clear
8:55 PM 70.0 °F 33.3 °F 26% 29.99 in 10.0 mi Calm Calm - N/A   Clear
9:15 PM 69.8 °F 34.0 °F 27% 30.00 in 10.0 mi Calm Calm - N/A   Clear
9:35 PM 66.6 °F 36.5 °F 33% 30.00 in 10.0 mi Calm Calm - N/A   Clear
9:55 PM 63.3 °F 37.8 °F 39% 30.00 in 10.0 mi South 3.5 mph - N/A   Clear
10:15 PM 63.0 °F 38.3 °F 40% 30.00 in 10.0 mi Calm Calm - N/A   Clear
10:35 PM 64.2 °F 38.1 °F 38% 30.01 in 10.0 mi SW 3.5 mph - N/A   Clear
10:55 PM 64.6 °F 37.8 °F 37% 30.01 in 10.0 mi SW 4.6 mph - N/A   Clear
11:15 PM 64.2 °F 37.2 °F 37% 30.01 in 10.0 mi SSW 5.8 mph - N/A   Clear
11:35 PM 64.8 °F 36.1 °F 35% 30.01 in 10.0 mi SSW 4.6 mph - N/A   Clear
11:55 PM 63.1 °F 37.2 °F 38% 30.01 in 10.0 mi Calm Calm - N/A   Clear